Regional Weather Roundup
Issued by NWS

Home | Current Version | Previous Version | Text Only | Print | Product List | Glossary Off
Versions: 1 2 3 4 5 6 7 8 9 10 11 12 13 14 15 16 17 18 19 20 21 22 23 24 25 26 27 28 29 30 31 32 33 34 35 36 37 38 39 40 41 42 43 44 45 46 47 48 49 50

000
ASUS45 KSLC 211110
RWRUT

UTAH REGIONAL WEATHER ROUNDUP
NATIONAL WEATHER SERVICE SALT LAKE CITY UT
400 AM MST SUN JAN 21 2018

UTZ001>011-023>025-211200-

NORTHERN UTAH

CITY           SKY/WX    TMP DP  RH WIND       PRES   REMARKS
BRIGHAM CITY   CLOUDY    28  20  71 N10       30.06R WCI  19
HILL AFB       PTCLDY    24  17  72 N8        30.03R WCI  16
LOGAN          CLOUDY    23  17  78 CALM      30.05R
OGDEN          PTCLDY    25  18  74 NW9       30.04R WCI  15
SALT LAKE CITY PTCLDY    27  21  78 NW6       30.05R WCI  20
TOOELE VALLEY  PTCLDY    23  19  86 W13       30.07R WCI  11
WENDOVER       PTCLDY    29  17  61 W8        30.11R WCI  21
HEBER CITY     CLOUDY    23  14  68 N9        29.94R WCI  13
WEST JORDAN    MOCLDY    22  21  97 NW7       30.05R WCI  14

$$

UTZ011>015-024>027-211200-

CENTRAL/NORTHEAST UTAH

CITY           SKY/WX    TMP DP  RH WIND       PRES   REMARKS
PROVO AIRPORT  FLURRIES  27  22  81 NW23G30   30.02R WCI  12
MOAB/CANYONLAN CLOUDY    30  21  69 W16       29.77R WCI  19
DELTA          CLOUDY    23  19  86 NW6       30.06R WCI  16
PRICE          CLOUDY    26  14  60 NW18G28   29.80S WCI  13
RICHFIELD      CLOUDY    25  19  80 CALM      30.01R
ROOSEVELT      CLOUDY    28  19  69 SW8       29.84S WCI  20
VERNAL         CLOUDY    30  17  58 CALM      29.82R

$$

UTZ013>016-019>022-027-211200-

SOUTHERN UTAH

CITY           SKY/WX    TMP DP  RH WIND       PRES   REMARKS
BRYCE CANYON   LGT SNOW  16  12  84 NW22G31   29.87R FOG     WCI  -2
CEDAR CITY     CLOUDY    18  16  92 N5        30.03R WCI  11
MILFORD        CLOUDY    17  14  88 CALM      30.06R
ST GEORGE      PTSUNNY   36  21  54 NW9       30.09R WCI  29
HANKSVILLE     MOCLDY    32  10  40 NW7       29.86S WCI  26
KANAB          CLEAR     30  16  55 W9G15     30.01R WCI  22
BLANDING         N/A     25  24  96 N18       29.82S VSB 1/2 WCI  12

$$

REGIONAL REPORTS     COLORADO/ARIZONA

CITY           SKY/WX    TMP DP  RH WIND       PRES   REMARKS
CRAIG, CO      LGT SNOW  22  18  85 SW12      29.73F FOG     WCI  10
GRAND JUNCTION LGT SNOW  29  29 100 W9        29.74S VSB 1   WCI  20
RIFLE, CO      MIX PCPN  31  28  89 NW10      29.67F WCI  22
MONTROSE, CO   CLOUDY    30  19  63 N6        29.72S WCI  24
CORTEZ, CO     CLOUDY    26  23  88 CALM      29.76F
COLORADO CITY    N/A     30  19  64 NW17G24   30.04S WCI  18
PAGE, AZ       MOCLDY    35  15  44 W16G26    29.88R WCI  25
GRAND CANYON   CLOUDY    19  17  92 W7        29.93S WCI  10
KINGMAN, AZ    CLEAR    N/A N/A N/A CALM      30.11R
FLAGSTAFF, AZ  LGT SNOW  19  15  84 VRB7G16   29.91S VSB 3/4 WCI  10

$$

REGIONAL REPORTS    NEVADA/IDAHO/WYOMING

CITY           SKY/WX    TMP DP  RH WIND       PRES   REMARKS
LAS VEGAS, NV  CLEAR     45  13  27 NW15      30.14S
ELY, NY        CLOUDY    14   9  80 NW5       30.10R WCI   6
ELKO, NV       PTCLDY    26  16  65 SW3       30.16R
POCATELLO, ID  CLOUDY    26  23  88 SW16      30.09R WCI  14
BURLEY, ID     PTCLDY    27  22  81 W8        30.10S WCI  19
FORT BRIDGER,  LGT SNOW  17  17  97 W14       29.91R WCI   3
EVANSTON, WY   CLOUDY    13  11  92 W7        29.90R FOG     WCI   3
ROCK SPRINGS,  FLURRIES  20  14  77 N12       29.85S WCI   8

$$



USA.gov is the U.S. government's official web portal to all federal, state and local government web resources and services.